Wind_Speed
22 21 23 18 19 19 19 23 24 25 26 25 25 27 29 31 32 32 32 35 38 41 39 40 41 40 41 42 42 44 46 45 46 49 53 54 55 58 60 65 70 76 80 85
20 22 22 22 21 21 23 23 24 26 26 25 26 28 30 32 33 35 36 34 32 33 34 33 33 35 36 37 39 41 42 44 46 51 55 58 61 65 68 71 75 78 81 84
22 22 21 21 21 22 22 22 22 21 21 22 24 26 26 28 29 27 25 26 27 27 25 26 28 31 34 36 39 41 45 49 52 55 58 60 61 63 65 68 70 73 76 79
21 21 20 19 19 21 21 20 20 21 20 19 20 20 19 20 19 18 18 19 19 19 20 22 25 31 36 39 42 44 45 46 46 48 52 56 59 61 64 67 70 72 75 78
20 19 19 19 19 19 20 19 15 14 12 14 16 19 21 20 17 15 16 16 15 19 22 22 25 29 31 35 38 42 44 45 48 51 54 57 60 63 65 68 71 73 75 77
18 17 14 15 19 20 16 12 12 13 15 16 14 15 17 14 14 13 13 15 17 20 23 26 28 32 35 39 42 46 49 51 53 56 59 62 64 66 68 68 70 72 73 72
15 14 16 18 18 16 13 15 14 10 9 13 13 15 15 11 9 9 13 18 22 26 29 32 34 38 41 44 48 52 55 57 59 61 63 65 67 68 69 69 68 68 70 77
16 15 13 12 11 9 8 8 6 3 3 3 2 3 5 8 11 13 16 20 24 28 30 33 37 39 43 47 50 54 56 59 61 63 64 65 64 64 65 67 70 74 78 84
15 13 12 10 11 12 13 12 10 7 2 1 4 6 8 11 14 17 18 21 23 27 32 36 40 44 48 51 53 55 57 58 59 59 61 62 63 65 67 70 74 79 85 89
10 10 13 17 18 17 14 11 8 6 5 5 8 10 12 14 15 17 20 24 28 32 39 43 45 47 50 52 55 56 56 57 59 60 59 62 64 65 69 74 79 85 90 95
14 18 21 20 17 13 10 8 7 6 5 6 8 12 14 17 20 22 24 29 33 38 43 46 49 51 54 55 57 60 60 60 60 61 61 62 64 68 73 79 84 90 94 100
23 21 18 16 13 10 7 5 6 7 7 9 12 15 19 21 23 25 29 34 37 41 47 51 51 49 51 55 59 61 60 60 61 62 62 65 68 73 80 84 88 93 99 107
20 18 15 12 9 7 7 7 9 11 12 15 18 21 22 25 27 30 34 39 41 45 51 54 57 58 58 60 62 64 63 60 59 60 64 69 76 81 86 90 94 100 107 111
16 14 11 9 8 8 9 10 13 15 18 21 23 27 28 30 33 36 41 44 45 52 56 59 63 65 66 67 68 70 68 65 65 68 71 76 81 86 93 97 103 108 113 117
14 12 11 11 11 10 12 14 18 20 25 25 27 31 31 34 35 41 46 47 51 57 62 64 66 70 70 70 71 74 72 69 72 76 79 85 88 95 99 104 110 115 117 116
12 13 15 14 14 15 18 22 24 27 29 29 32 38 37 36 40 47 51 53 57 62 65 67 69 73 73 72 74 77 76 76 79 82 87 91 96 101 106 111 115 117 117 117
18 19 18 17 18 20 24 31 30 32 33 35 37 41 38 39 45 52 56 59 64 68 70 72 74 76 75 76 78 80 80 82 84 89 94 98 103 108 111 114 117 118 116 115
22 23 22 23 25 24 32 37 36 34 38 40 42 41 41 46 51 57 60 64 69 71 73 76 78 78 80 81 83 84 84 86 90 95 100 105 108 111 113 114 115 113 112 111
25 26 26 27 30 30 34 38 40 41 42 45 44 45 48 52 56 61 63 69 72 74 77 79 81 82 84 86 87 87 89 92 96 101 106 110 111 113 113 115 111 112 111 109
28 30 30 32 32 32 37 41 43 45 43 48 51 51 54 58 61 66 68 71 75 78 80 84 84 86 89 89 89 92 95 98 102 107 111 113 113 112 112 109 109 111 109 106
32 33 35 36 36 36 40 43 45 48 49 51 53 56 60 63 68 70 72 75 80 83 85 85 88 91 92 91 93 96 99 103 108 111 112 112 112 110 109 109 109 109 106 103
35 36 38 39 40 42 45 47 50 52 53 54 57 60 63 67 71 72 75 81 85 86 86 90 91 92 93 95 97 100 105 109 111 112 112 111 108 108 107 109 108 105 105 99
40 42 43 47 49 50 51 51 53 55 58 62 64 67 69 72 74 76 81 85 86 87 91 90 92 95 95 98 101 106 110 111 112 112 110 104 104 106 108 107 105 104 101 95
44 47 49 51 53 55 55 57 60 62 64 67 70 72 74 77 80 83 87 87 89 89 92 93 95 98 101 105 108 110 111 113 112 107 101 102 105 107 106 105 103 102 96 88
46 48 49 50 55 57 63 66 66 68 72 74 75 79 82 84 85 85 86 88 89 92 96 97 101 105 109 112 112 112 112 107 104 102 101 104 106 106 105 103 101 96 90 82
56 56 56 58 62 63 66 69 71 74 77 81 84 85 85 84 85 87 88 91 94 96 100 103 107 111 113 114 112 109 104 102 102 103 105 105 104 104 102 100 97 90 83 78
Wind_Direction
198 205 206 200 208 214 224 235 236 238 242 245 249 253 255 257 259 260 262 265 265 266 268 272 276 280 282 282 284 284 286 286 288 287 287 286 283 279 277 274 274 276 277 278
196 205 209 217 222 226 236 239 243 245 249 252 253 255 257 260 261 261 265 266 265 265 267 270 274 279 282 285 284 283 285 286 286 285 284 285 285 284 282 280 281 282 283 285
207 207 210 220 229 237 238 240 243 244 245 249 253 257 257 257 260 264 267 268 268 269 271 280 283 288 288 286 287 288 288 286 286 288 287 285 284 284 285 286 286 287 287 288
212 215 215 218 218 218 223 231 241 244 243 240 240 246 252 260 268 269 271 275 278 285 284 281 283 280 282 284 285 285 286 288 288 287 286 287 288 288 287 286 285 286 287 289
200 200 204 213 217 223 229 225 221 228 226 230 238 250 252 259 265 279 294 301 296 282 280 281 282 282 286 287 288 290 292 292 290 288 287 288 288 288 288 288 289 289 289 289
196 201 201 211 214 214 214 206 202 207 218 234 237 251 267 287 303 305 294 286 286 291 292 294 296 296 299 298 297 296 295 293 293 294 294 294 293 292 291 291 291 292 294 296
185 191 206 209 202 193 191 202 202 217 242 263 276 280 297 299 290 300 301 302 304 306 305 303 302 300 299 299 300 299 298 297 295 293 292 294 295 295 294 295 297 299 301 302
176 178 185 193 193 180 191 195 199 208 206 239 268 287 297 303 308 311 304 298 296 298 299 299 301 305 308 309 307 304 302 301 300 302 302 303 304 304 303 303 304 304 303 302
173 166 170 178 180 174 165 154 152 153 160 328 312 306 293 288 290 294 299 301 300 304 311 315 317 317 317 315 311 308 305 304 305 306 306 306 304 303 302 303 303 303 304 305
167 170 164 155 156 154 153 151 150 166 206 243 267 282 292 298 299 296 295 302 310 315 321 322 321 319 318 319 319 317 313 309 306 303 301 301 301 303 303 304 304 305 305 306
161 159 154 155 155 154 157 166 183 206 236 278 297 300 300 296 294 297 305 316 320 324 327 324 323 321 319 318 318 317 314 310 304 303 302 302 303 303 303 303 304 306 308 310
157 158 163 159 160 168 178 204 237 258 274 286 291 296 296 296 301 305 312 318 319 324 326 325 322 317 316 314 315 316 316 312 308 305 303 302 303 305 306 309 310 311 312 314
167 171 170 168 181 200 217 236 252 266 273 279 291 300 303 298 300 306 311 314 314 317 320 321 322 320 317 316 319 321 318 315 309 306 305 307 308 309 312 313 314 316 316 317
183 184 185 201 220 238 255 264 272 278 284 287 290 294 305 298 298 306 309 312 313 316 316 318 320 321 319 318 319 321 319 315 312 311 312 313 313 314 316 316 318 318 319 319
204 208 216 232 246 262 276 278 278 283 283 288 289 289 299 296 296 302 306 310 313 316 316 317 317 319 318 317 317 319 317 314 314 314 315 316 318 318 319 319 320 320 319 318
214 231 240 251 263 273 282 282 278 281 284 290 291 295 303 300 300 302 307 309 313 313 314 313 313 315 317 317 316 317 315 315 316 316 317 320 320 319 320 320 319 319 318 317
226 239 248 258 265 275 287 283 284 284 288 291 294 296 301 302 301 304 305 309 311 311 312 312 312 313 315 316 317 316 316 316 316 317 320 320 320 321 320 319 318 318 317 317
235 246 254 262 268 274 277 284 283 284 289 291 290 294 298 300 302 303 305 309 309 311 310 311 312 312 314 316 316 316 317 317 318 320 320 319 320 320 319 319 317 317 318 320
247 257 264 269 274 276 280 281 285 290 292 293 296 295 296 299 301 303 307 307 309 310 310 310 311 312 314 315 315 316 317 318 319 320 319 319 320 319 319 318 317 319 321 322
254 260 265 269 272 276 278 283 289 291 292 295 294 294 294 297 302 304 306 308 309 309 309 310 311 312 312 314 315 317 317 318 318 318 318 318 319 319 318 318 319 321 322 322
262 266 270 272 275 277 279 283 289 295 293 292 292 290 291 297 301 301 304 305 307 309 311 311 311 311 312 314 315 316 317 318 317 317 317 318 319 318 318 320 321 321 322 324
265 267 267 269 271 274 279 285 290 291 289 290 292 294 296 298 299 301 303 304 307 308 308 310 313 312 313 314 315 316 316 315 315 317 318 318 318 319 320 320 321 322 324 324
268 270 271 273 276 283 286 288 287 289 294 295 295 295 297 300 300 301 301 303 306 307 309 311 311 311 313 314 314 314 314 314 316 317 316 317 319 319 319 319 321 323 324 323
272 274 276 280 284 285 286 284 286 289 292 294 296 298 299 300 300 302 303 305 306 307 308 309 310 311 312 313 313 313 314 315 315 316 316 318 319 318 319 320 322 322 323 322
275 277 280 284 285 285 285 286 290 293 294 296 297 297 298 301 302 303 304 305 306 308 308 309 310 312 311 312 313 313 314 315 315 315 317 318 319 318 319 320 321 322 322 322
276 277 279 281 282 284 288 291 293 294 295 296 297 299 301 303 304 303 304 305 306 308 309 309 309 310 311 311 312 313 315 315 315 317 317 318 318 318 318 319 321 321 321 322
Height
10608 10614 10617 10623 10627 10630 10633 10635 10638 10640 10642 10644 10645 10647 10647 10649 10651 10653 10656 10657 10657 10657 10655 10654 10654 10652 10651 10651 10650 10646 10643 10640 10638 10636 10631 10627 10623 10619 10613 10607 10600 10592 10585 10577
10607 10611 10615 10619 10623 10627 10629 10631 10632 10634 10636 10638 10638 10639 10640 10642 10645 10647 10649 10650 10650 10649 10650 10650 10647 10644 10644 10643 10641 10638 10635 10632 10628 10623 10619 10615 10610 10605 10599 10592 10585 10578 10571 10563
10604 10608 10612 10615 10619 10623 10625 10626 10627 10630 10631 10632 10632 10633 10633 10635 10637 10641 10643 10643 10642 10643 10643 10641 10639 10637 10634 10631 10629 10627 10623 10619 10615 10612 10608 10602 10596 10591 10586 10580 10572 10565 10557 10549
10601 10605 10609 10612 10616 10618 10620 10622 10624 10626 10627 10629 10629 10629 10629 10630 10633 10635 10635 10636 10636 10636 10635 10635 10634 10629 10626 10623 10619 10617 10613 10610 10607 10602 10596 10590 10584 10579 10573 10566 10559 10552 10543 10535
10598 10601 10605 10609 10611 10614 10617 10619 10621 10622 10623 10624 10623 10624 10624 10626 10629 10630 10630 10630 10629 10628 10627 10627 10626 10622 10620 10618 10614 10609 10605 10600 10595 10590 10584 10578 10571 10564 10557 10550 10543 10536 10528 10519
10596 10599 10603 10606 10609 10611 10613 10615 10617 10619 10619 10619 10621 10621 10621 10624 10626 10626 10626 10624 10623 10623 10623 10622 10621 10618 10614 10610 10606 10601 10595 10590 10584 10578 10571 10564 10556 10548 10541 10534 10527 10518 10509 10500
10594 10597 10602 10605 10608 10609 10611 10613 10614 10615 10616 10616 10618 10618 10620 10621 10622 10623 10622 10621 10620 10619 10617 10616 10614 10610 10606 10601 10596 10589 10583 10577 10570 10564 10556 10547 10539 10531 10524 10516 10507 10498 10490 10479
10593 10596 10600 10602 10604 10606 10608 10610 10611 10612 10614 10615 10616 10617 10618 10619 10619 10620 10620 10619 10617 10614 10612 10610 10607 10602 10596 10589 10582 10574 10567 10560 10552 10544 10537 10529 10521 10513 10504 10496 10488 10480 10472 10461
10591 10594 10597 10600 10603 10605 10606 10609 10611 10612 10613 10614 10614 10615 10616 10616 10617 10617 10616 10615 10613 10610 10605 10601 10596 10591 10585 10578 10570 10562 10554 10546 10538 10531 10523 10515 10508 10500 10492 10482 10473 10463 10452 10441
10589 10592 10596 10600 10603 10605 10607 10609 10611 10612 10613 10614 10614 10614 10613 10613 10612 10611 10610 10608 10605 10602 10597 10591 10585 10579 10572 10564 10556 10548 10541 10533 10526 10518 10510 10502 10494 10486 10476 10466 10456 10444 10431 10418
10589 10593 10597 10600 10602 10605 10607 10609 10611 10612 10612 10612 10611 10610 10610 10609 10607 10606 10604 10601 10596 10592 10587 10581 10574 10568 10561 10554 10546 10539 10531 10523 10514 10506 10497 10488 10479 10471 10460 10450 10438 10425 10412 10396
10590 10594 10597 10599 10602 10604 10606 10607 10608 10609 10608 10608 10608 10607 10605 10604 10601 10599 10595 10591 10587 10582 10577 10572 10567 10561 10554 10545 10537 10528 10518 10509 10500 10492 10484 10475 10466 10456 10445 10432 10419 10404 10386 10367
10590 10593 10596 10598 10601 10602 10603 10605 10605 10605 10605 10604 10603 10602 10601 10598 10595 10592 10588 10584 10580 10575 10569 10563 10556 10549 10540 10531 10521 10512 10503 10494 10486 10478 10470 10460 10450 10438 10424 10408 10393 10376 10356 10335
10589 10592 10595 10597 10598 10599 10600 10601 10601 10601 10600 10599 10598 10595 10594 10590 10586 10583 10578 10573 10568 10563 10557 10550 10541 10532 10523 10514 10505 10496 10487 10478 10470 10462 10453 10442 10429 10414 10399 10382 10365 10347 10326 10304
10588 10590 10592 10593 10594 10595 10596 10596 10595 10595 10593 10592 10591 10587 10588 10582 10578 10573 10568 10563 10558 10551 10543 10535 10527 10519 10509 10500 10490 10481 10471 10462 10452 10442 10432 10420 10404 10387 10372 10356 10336 10317 10298 10279
10585 10587 10588 10589 10590 10590 10590 10589 10589 10587 10585 10584 10581 10576 10577 10573 10568 10562 10557 10552 10546 10538 10531 10523 10515 10505 10495 10486 10476 10465 10454 10444 10434 10423 10410 10396 10381 10364 10345 10327 10310 10292 10272 10253
10580 10581 10583 10584 10584 10585 10583 10579 10579 10578 10576 10574 10571 10568 10566 10562 10556 10551 10545 10540 10533 10525 10517 10507 10499 10489 10480 10471 10460 10448 10437 10427 10414 10401 10387 10372 10357 10340 10323 10306 10286 10266 10247 10227
10573 10575 10576 10577 10577 10579 10574 10571 10570 10571 10568 10565 10561 10559 10556 10551 10546 10538 10533 10526 10517 10510 10501 10492 10482 10472 10463 10453 10441 10430 10419 10407 10393 10378 10363 10349 10335 10319 10300 10282 10261 10242 10223 10202
10567 10569 10570 10570 10570 10570 10567 10563 10560 10560 10559 10553 10552 10548 10544 10539 10533 10524 10520 10511 10503 10494 10485 10475 10465 10455 10445 10434 10424 10412 10400 10386 10371 10357 10343 10328 10314 10296 10276 10258 10237 10217 10198 10178
10561 10561 10562 10561 10562 10561 10557 10554 10552 10550 10550 10544 10539 10535 10530 10526 10520 10511 10504 10496 10487 10478 10468 10458 10447 10438 10428 10417 10405 10392 10379 10366 10351 10338 10323 10307 10290 10272 10254 10234 10214 10194 10177 10160
10553 10553 10553 10552 10552 10552 10547 10544 10542 10539 10537 10533 10528 10523 10518 10512 10505 10497 10488 10479 10470 10460 10450 10439 10429 10420 10408 10397 10384 10372 10359 10346 10331 10317 10301 10283 10266 10248 10229 10210 10192 10174 10157 10138
10544 10544 10543 10542 10541 10541 10537 10535 10532 10527 10523 10520 10515 10510 10506 10499 10490 10482 10473 10462 10452 10442 10432 10423 10412 10400 10389 10378 10366 10354 10341 10325 10310 10295 10277 10260 10243 10223 10205 10187 10171 10154 10136 10118
10533 10533 10533 10529 10528 10527 10526 10522 10518 10513 10510 10505 10500 10494 10488 10481 10473 10466 10456 10447 10437 10426 10416 10405 10393 10381 10371 10360 10349 10335 10320 10304 10287 10270 10254 10239 10221 10202 10184 10167 10151 10135 10118 10102
10522 10521 10519 10518 10516 10513 10511 10507 10504 10500 10496 10489 10484 10477 10470 10463 10455 10447 10438 10428 10419 10409 10396 10386 10375 10363 10350 10338 10327 10313 10295 10279 10263 10248 10232 10216 10199 10180 10163 10147 10131 10117 10101 10087
10510 10508 10508 10508 10504 10501 10495 10491 10488 10483 10478 10473 10467 10459 10451 10444 10436 10427 10418 10408 10398 10388 10375 10366 10353 10339 10325 10311 10298 10285 10270 10254 10239 10224 10209 10192 10175 10158 10142 10127 10113 10099 10084 10069
10494 10495 10496 10495 10489 10487 10482 10476 10472 10465 10458 10452 10447 10439 10432 10424 10415 10406 10397 10387 10377 10367 10354 10342 10330 10315 10300 10287 10275 10260 10245 10230 10216 10199 10185 10170 10154 10137 10123 10109 10095 10081 10066 10053